Ottawa International, Ontario

2:41 PM EDT on May 25, 2017 (GMT -0400)
Ottawa International Airport

Weather History for CYOW - October, 2012

Change the Weather History Date:

Tuesday, October 16, 2012

  Actual Average Record
Temperature  
Mean Temperature 38 °F -  
Max Temperature 47 °F 47 °F 68 °F (1999)
Min Temperature 30 °F 32 °F 30 °F (2012)
Degree Days  
Heating Degree Days 26    
Moisture  
Dew Point 33 °F    
Average Humidity 73    
Maximum Humidity 93    
Minimum Humidity 57    
Precipitation  
Precipitation 0.00 in 0.11 in - ()
Sea Level Pressure  
Sea Level Pressure 29.79 in    
Wind  
Wind Speed 11 mph ()    
Max Wind Speed 22 mph    
Max Gust Speed 28 mph    
Visibility 14.8 miles    
Events Rain    
Averages and records for this station are not official NWS values.
T = Trace of Precipitation, MM = Missing Value Source: Averaged Metar Reports

Daily Weather History Graph

Daily Weather History Graph

Search for Another Location

Airport or City:

Trip Planner

Search our weather history database for the weather conditions in past years. The results will help you decide how hot, cold, wet, or windy it might be!

Date:

Astronomy

Oct. 16, 2012 Rise Set
Actual Time 7:20 AM EDT 6:14 PM EDT
Civil Twilight 6:50 AM EDT 6:44 PM EDT
Nautical Twilight 6:16 AM EDT 7:18 PM EDT
Astronomical Twilight 5:42 AM EDT 7:52 PM EDT
Moon 8:46 AM EDT (10/16) 6:50 PM EDT (10/16)
Length of Visible Light 11h 53m
Length of Day
10h 54m
New Moon, 2% of the Moon is Illuminated
Oct 16
New Moon
Oct 21
First Quarter
Oct 29
Full
Nov 6
Last Quarter
Nov 13
New

Hourly Weather History & Observations

Time (EDT) Temp. Windchill Dew Point Humidity Pressure Visibility Wind Dir Wind Speed Gust Speed Precip Events Conditions
12:00 AM 44.6 °F 38.8 °F 37.4 °F 76% 29.62 in 15.0 mi WSW 11.5 mph - N/A   Mostly Cloudy
12:10 AM 42.8 °F 34.5 °F 37.4 °F 81% 29.62 in 10.0 mi West 18.4 mph 26.5 mph N/A Rain Light Rain Showers
12:43 AM 42.8 °F 34.8 °F 37.4 °F 81% 29.65 in 15.0 mi West 17.3 mph 27.6 mph N/A   Mostly Cloudy
1:00 AM 41.0 °F 31.4 °F 35.6 °F 81% 29.65 in 15.0 mi WNW 21.9 mph - N/A   Overcast
2:00 AM 41 °F - 35 °F 71% 29.68 in 15 mi West 15.0 mph - -   Partly Cloudy
2:00 AM 41.0 °F 32.8 °F 33.8 °F 76% 29.68 in 15.0 mi WNW 16.1 mph 23.0 mph N/A   Overcast
3:00 AM 41.0 °F 32.8 °F 33.8 °F 76% 29.69 in 15.0 mi WNW 16.1 mph - N/A   Mostly Cloudy
4:00 AM 39.2 °F 31.2 °F 33.8 °F 81% 29.72 in 15.0 mi WNW 13.8 mph 21.9 mph N/A   Overcast
5:00 AM 39.2 °F 32.0 °F 33.8 °F 81% 29.73 in 15.0 mi West 11.5 mph 18.4 mph N/A   Overcast
6:00 AM 41.0 °F 34.7 °F 33.8 °F 76% 29.75 in 15.0 mi WNW 10.4 mph 21.9 mph N/A   Overcast
7:00 AM 41.0 °F 34.3 °F 33.8 °F 76% 29.77 in 15.0 mi WNW 11.5 mph 18.4 mph N/A   Overcast
8:00 AM 40 °F - 34 °F 73% 29.80 in 15 mi WNW 10.4 mph - -   Scattered Clouds
8:00 AM 41.0 °F 34.7 °F 33.8 °F 76% 29.79 in 15.0 mi WNW 10.4 mph - N/A   Scattered Clouds
9:00 AM 41.0 °F 34.3 °F 35.6 °F 81% 29.81 in 15.0 mi West 11.5 mph 18.4 mph N/A   Scattered Clouds
10:00 AM 42.8 °F 35.8 °F 35.6 °F 76% 29.82 in 15.0 mi WNW 13.8 mph 21.9 mph N/A   Mostly Cloudy
11:00 AM 44.6 °F 38.8 °F 35.6 °F 71% 29.82 in 15.0 mi WNW 11.5 mph 19.6 mph N/A   Mostly Cloudy
12:00 PM 44.6 °F 37.8 °F 33.8 °F 66% 29.83 in 15.0 mi West 15.0 mph - N/A   Mostly Cloudy
1:00 PM 44.6 °F 38.4 °F 35.6 °F 71% 29.83 in 15.0 mi West 12.7 mph 23.0 mph N/A   Mostly Cloudy
2:00 PM 45 °F - 35 °F 57% 29.83 in 15 mi West 13.8 mph - -   Mostly Cloudy
2:00 PM 44.6 °F 37.8 °F 33.8 °F 66% 29.83 in 15.0 mi West 15.0 mph - N/A   Mostly Cloudy
3:00 PM 44.6 °F 38.1 °F 33.8 °F 66% 29.84 in 15.0 mi WNW 13.8 mph 20.7 mph N/A   Mostly Cloudy
4:00 PM 46.4 °F 40.7 °F 32.0 °F 57% 29.83 in 15.0 mi WNW 12.7 mph 18.4 mph N/A   Scattered Clouds
5:00 PM 46.4 °F 41.5 °F 32.0 °F 57% 29.84 in 15.0 mi WNW 10.4 mph - N/A   Partly Cloudy
6:00 PM 41.0 °F 35.2 °F 32.0 °F 70% 29.85 in 15.0 mi NW 9.2 mph - N/A   Partly Cloudy
7:00 PM 37.4 °F 33.8 °F 30.2 °F 75% 29.86 in 15.0 mi NW 4.6 mph - N/A   Partly Cloudy
8:00 PM 40 °F - 31 °F 59% 29.86 in 15 mi NNW 4.6 mph - -  
8:00 PM 39.2 °F 37.0 °F 30.2 °F 70% 29.86 in 15.0 mi NW 3.5 mph - N/A   Clear
9:00 PM 37.4 °F - 30.2 °F 75% 29.87 in 15.0 mi Calm Calm - N/A   Clear
9:12 PM 35.6 °F - 28.4 °F 75% 29.87 in 15.0 mi Calm Calm - N/A   Clear
10:00 PM 30.2 °F 25.4 °F 26.6 °F 86% 29.88 in 15.0 mi South 4.6 mph - N/A   Clear
11:00 PM 32.0 °F 27.5 °F 30.2 °F 93% 29.89 in 15.0 mi SW 4.6 mph - N/A   Clear